Weather History for KHKY - December, 2012

Change the Weather History Date:

Saturday, December 29, 2012

  Actual Average Record
Temperature  
Mean Temperature 42 °F -  
Max Temperature 50 °F 49 °F 76 °F (1984)
Min Temperature 33 °F 28 °F 14 °F (1961)
Degree Days  
Heating Degree Days 24    
Moisture  
Dew Point 32 °F    
Average Humidity 85    
Maximum Humidity 100    
Minimum Humidity 44    
Precipitation  
Precipitation 0.17 in - - ()
Sea Level Pressure  
Sea Level Pressure 29.80 in    
Wind  
Wind Speed 3 mph (WNW)    
Max Wind Speed 16 mph    
Max Gust Speed 25 mph    
Visibility 4 miles    
Events Rain    
Averages and records for this station are not official NWS values.
T = Trace of Precipitation, MM = Missing Value Source: NWS Daily Summary

Daily Weather History Graph

Daily Weather History Graph

Search for Another Location

Airport or City:

Trip Planner

Search our weather history database for the weather conditions in past years. The results will help you decide how hot, cold, wet, or windy it might be!

Date:

Astronomy

Dec. 29, 2012 Rise Set
Actual Time 7:34 AM EST 5:20 PM EST
Civil Twilight 7:06 AM EST 5:49 PM EST
Nautical Twilight 6:34 AM EST 6:21 PM EST
Astronomical Twilight 6:03 AM EST 6:52 PM EST
Moon 6:49 PM EST (12/29) 8:10 AM EST (12/29)
Length of Visible Light 10h 42m
Length of Day
9h 46m
Full, 98% of the Moon is Illuminated
Dec 29
Full
Jan 4
Last Quarter
Jan 11
New
Jan 18
First Quarter
Jan 26
Full

Hourly Weather History & Observations

Time (EST) Temp. Windchill Dew Point Humidity Pressure Visibility Wind Dir Wind Speed Gust Speed Precip Events Conditions
12:53 AM 35.1 °F - 33.1 °F 92% 29.94 in 5.0 mi Calm Calm - 0.03 in Rain Light Rain
1:53 AM 34.0 °F - 33.1 °F 96% 29.90 in 4.0 mi Calm Calm - 0.05 in Rain Light Rain
2:49 AM 33.8 °F - 32.0 °F 93% 29.90 in 2.5 mi Calm Calm - 0.04 in Rain Light Rain
2:53 AM 34.0 °F - 32.0 °F 92% 29.88 in 2.5 mi Calm Calm - 0.04 in Rain Light Rain
3:19 AM 33.8 °F - 33.8 °F 100% 29.88 in 1.0 mi Calm Calm - 0.02 in Rain Light Rain
3:28 AM 33.8 °F - 33.8 °F 100% 29.86 in 0.8 mi Calm Calm - 0.03 in Rain Rain
3:36 AM 33.8 °F - 33.8 °F 100% 29.85 in 1.5 mi Calm Calm - 0.04 in Rain Rain
3:53 AM 34.0 °F 28.0 °F 32.0 °F 92% 29.79 in 1.0 mi NNE 6.9 mph - 0.05 in Rain Light Rain
4:03 AM 33.8 °F 30.8 °F 32.0 °F 93% 29.80 in 3.0 mi NE 3.5 mph - 0.00 in Rain Light Rain
4:10 AM 33.8 °F 29.6 °F 32.0 °F 93% 29.79 in 2.5 mi ENE 4.6 mph - 0.00 in Rain Light Rain
4:30 AM 33.8 °F - 33.8 °F 100% 29.81 in 2.0 mi Calm Calm - 0.00 in   Overcast
4:44 AM 33.8 °F - 33.8 °F 100% 29.80 in 1.0 mi Calm Calm - 0.00 in   Overcast
4:53 AM 34.0 °F - 33.1 °F 96% 29.78 in 1.0 mi Calm Calm - 0.00 in   Overcast
5:05 AM 33.8 °F - 32.0 °F 93% 29.78 in 0.8 mi Calm Calm - N/A   Mist
5:27 AM 33.8 °F - 32.0 °F 93% 29.77 in 1.8 mi Calm Calm - N/A   Overcast
5:53 AM 33.1 °F 30.0 °F 32.0 °F 96% 29.76 in 1.8 mi NNW 3.5 mph - N/A   Overcast
5:56 AM 33.8 °F 29.6 °F 32.0 °F 93% 29.77 in 2.0 mi NW 4.6 mph - N/A   Overcast
6:07 AM 33.8 °F - 32.0 °F 93% 29.77 in 2.5 mi Calm Calm - 0.00 in Rain Light Rain
6:37 AM 33.8 °F 29.6 °F 32.0 °F 93% 29.77 in 2.0 mi NW 4.6 mph - 0.00 in   Overcast
6:41 AM 33.8 °F 28.6 °F 32.0 °F 93% 29.77 in 1.8 mi NW 5.8 mph - 0.00 in   Overcast
6:49 AM 33.8 °F 30.8 °F 32.0 °F 93% 29.77 in 1.8 mi NW 3.5 mph - 0.00 in Rain Light Rain
6:53 AM 34.0 °F 31.0 °F 33.1 °F 96% 29.76 in 1.8 mi NW 3.5 mph - 0.00 in Rain Light Rain
6:59 AM 33.8 °F 30.8 °F 33.8 °F 100% 29.77 in 2.0 mi NW 3.5 mph - 0.00 in   Overcast
7:34 AM 33.8 °F - 33.8 °F 100% 29.76 in 2.0 mi Calm Calm - 0.00 in   Overcast
7:42 AM 33.8 °F - 33.8 °F 100% 29.76 in 1.8 mi Calm Calm - 0.00 in   Overcast
7:53 AM 34.0 °F - 32.0 °F 92% 29.75 in 2.0 mi Calm Calm - 0.00 in   Overcast
8:00 AM 33.8 °F - 33.8 °F 100% 29.76 in 1.0 mi Calm Calm - N/A   Overcast
8:08 AM 35.6 °F - 33.8 °F 93% 29.76 in 1.2 mi Calm Calm - N/A   Overcast
8:21 AM 33.8 °F - 33.8 °F 100% 29.76 in 2.0 mi Calm Calm - N/A   Overcast
8:36 AM 33.8 °F 29.6 °F 32.0 °F 93% 29.76 in 1.8 mi WNW 4.6 mph - N/A   Overcast
8:53 AM 34.0 °F - 33.1 °F 96% 29.75 in 1.0 mi Calm Calm - N/A   Overcast
9:16 AM 35.6 °F - 35.6 °F 100% 29.76 in 2.5 mi Calm Calm - N/A   Mostly Cloudy
9:19 AM 35.6 °F 31.7 °F 35.6 °F 100% 29.76 in 3.0 mi SSW 4.6 mph - N/A   Scattered Clouds
9:41 AM 35.6 °F 31.7 °F 33.8 °F 93% 29.76 in 2.5 mi South 4.6 mph - N/A   Partly Cloudy
9:50 AM 37.4 °F - 35.6 °F 93% 29.76 in 3.0 mi Calm Calm - N/A   Scattered Clouds
9:53 AM 37.9 °F 35.5 °F 36.0 °F 93% 29.75 in 4.0 mi West 3.5 mph - N/A   Scattered Clouds
10:09 AM 39.2 °F 34.2 °F 37.4 °F 93% 29.77 in 5.0 mi WSW 6.9 mph - N/A   Mostly Cloudy
10:53 AM 41.0 °F 36.4 °F 37.9 °F 89% 29.75 in 8.0 mi SW 6.9 mph - N/A   Mostly Cloudy
11:10 AM 42.8 °F 38.6 °F 37.4 °F 81% 29.75 in 8.0 mi SSW 6.9 mph - N/A   Scattered Clouds
11:53 AM 46.0 °F 43.1 °F 37.9 °F 73% 29.72 in 10.0 mi WSW 5.8 mph - N/A   Partly Cloudy
12:53 PM 50.0 °F - 35.1 °F 57% 29.70 in 10.0 mi West 11.5 mph 21.9 mph N/A   Partly Cloudy
1:53 PM 48.9 °F - 30.9 °F 50% 29.70 in 10.0 mi NW 10.4 mph 18.4 mph N/A   Overcast
2:53 PM 50.0 °F - 28.9 °F 44% 29.71 in 10.0 mi NW 13.8 mph 25.3 mph N/A   Mostly Cloudy
3:53 PM 48.0 °F - 28.0 °F 46% 29.76 in 10.0 mi West 11.5 mph 19.6 mph N/A   Mostly Cloudy
4:53 PM 43.0 °F 37.7 °F 26.1 °F 51% 29.81 in 10.0 mi NW 9.2 mph - N/A   Scattered Clouds
5:53 PM 39.9 °F 37.8 °F 26.1 °F 58% 29.83 in 10.0 mi Variable 3.5 mph - N/A   Mostly Cloudy
6:53 PM 37.0 °F 34.5 °F 25.0 °F 62% 29.86 in 10.0 mi West 3.5 mph - N/A   Partly Cloudy
7:53 PM 39.0 °F 32.3 °F 24.1 °F 55% 29.89 in 10.0 mi NW 10.4 mph 17.3 mph N/A   Mostly Cloudy
8:53 PM 37.9 °F 31.5 °F 23.0 °F 55% 29.93 in 10.0 mi NW 9.2 mph 17.3 mph N/A   Mostly Cloudy
9:53 PM 37.0 °F 27.7 °F 21.0 °F 52% 29.95 in 10.0 mi NW 16.1 mph 25.3 mph N/A   Scattered Clouds
10:53 PM 36.0 °F 33.3 °F 21.0 °F 55% 29.98 in 10.0 mi Variable 3.5 mph - N/A   Overcast
11:53 PM 35.1 °F 26.9 °F 19.0 °F 52% 30.00 in 10.0 mi WNW 11.5 mph 21.9 mph N/A   Partly Cloudy